Regional Weather Roundup
Issued by NWS Glasgow, MT

Home | Current Version | Previous Version | Text Only | Print | Product List | Glossary On
Versions: 1 2 3 4 5 6 7 8 9 10 11 12 13 14 15 16 17 18 19 20 21 22 23 24 25 26 27 28 29 30 31 32 33 34 35 36 37 38 39 40 41 42 43 44 45 46 47 48 49 50
000
ASUS45 KGGW 201315
RWRGGW
HOURLY WEATHER ROUNDUP FOR NORTHEAST MONTANA
NATIONAL WEATHER SERVICE GLASGOW MONTANA
700 AM MDT WED AUG 20 2014

NOTE: "FAIR" INDICATES FEW OR NO CLOUDS BELOW 12,000 FEET WITH NO
SIGNIFICANT WEATHER AND/OR OBSTRUCTIONS TO VISISBILITY.

NORTHEAST MONTANA


CITY           SKY/WX    TMP DP  RH WIND       PRES   REMARKS
GLASGOW        PTCLDY    63  54  72 W8        29.64R
PLENTYWOOD       N/A     64  59  83 SE3         N/A
WOLF POINT     MOCLDY    63  54  72 CALM      29.61R
JORDAN           N/A     66  53  63 W7        29.67R
WINNETT          N/A     68  44  42 W9          N/A
SIDNEY         CLOUDY    66  63  88 W5        29.62F
GLENDIVE       CLOUDY    70  61  73 SW15      29.66S
MALTA            N/A     65  58  78 W7          N/A
SCOBEY           N/A     62  54  74 CALM      29.67R

FORT PECK REPORTS


CITY           SKY/WX    TMP DP  RH WIND       PRES   REMARKS
FORT PECK        N/A     66  53  63 W10         N/A
THE PINES        N/A     69  52  54 NW10        N/A

SOUTHEAST MONTANA


CITY           SKY/WX    TMP DP  RH WIND       PRES   REMARKS
BILLINGS       CLOUDY    69  44  40 CALM      29.80R
MILES CITY     CLOUDY    72  45  37 W10       29.67R
BAKER          CLOUDY    67  61  81 SE5       29.70R
LIVINGSTON     PTCLDY    63  44  50 SW12      29.87R

CENTRAL MONTANA


CITY           SKY/WX    TMP DP  RH WIND       PRES   REMARKS
HAVRE          MOCLDY    57  55  93 W5        29.77R
LEWISTOWN      CLOUDY    62  47  57 SW8       29.83R
GREAT FALLS    CLOUDY    55  50  83 SW6       29.83R
CUT BANK       PTCLDY    51  49  92 NE3       29.82R
HELENA         MOCLDY    63  47  55 S3        29.85R
BUTTE          PTCLDY    46  41  82 S3        29.96R
BOZEMAN        MOCLDY    51  47  86 SE7       29.90R

WESTERN MONTANA


CITY           SKY/WX    TMP DP  RH WIND       PRES   REMARKS
MISSOULA       PTCLDY    51  49  92 NW6       29.87R
KALISPELL      NOT AVBL

NORTH DAKOTA


CITY           SKY/WX    TMP DP  RH WIND       PRES   REMARKS
WILLISTON      MOCLDY    72  61  68 S3        29.63R
DICKINSON      MOCLDY    68  62  81 S9        29.67R
MINOT          MOSUNNY   64  61  90 SE8       29.67S
BISMARCK       MOSUNNY   66  62  87 E8        29.72S

SOUTHERN SASKATCHEWAN


CITY           SKY/WX    TMP DP  RH WIND       PRES   REMARKS
REGINA         MOCLDY    63  59  88 E5        29.62S
MOOSE JAW      MOCLDY    57  57 100 NW5       29.64  FOG
ESTEVAN        TSTM      64  63  94 N7        29.66  FOG
SWIFT CURRENT  PTCLDY    59  57  94 W9        29.71R




USA.gov is the U.S. government's official web portal to all federal, state and local government web resources and services.